Regional Weather Roundup
Issued by NWS Midland/Odessa, TX

Skip options and go directly to product.
Home | Oldest Version | Previous Version | Current Version | All | Graphics & Text | Save Text | Print | Product List | Glossary On

Skip product version selection by date and time.   
603
ASUS44 KMAF 212010
RWRMAF
MIDLAND AREA WEATHER ROUNDUP
NATIONAL WEATHER SERVICE MIDLAND TX
300 PM CDT TUE OCT 21 2014

...IN SOUTHWEST TEXAS AND SOUTHEAST NEW MEXICO...

CITY           SKY/WX    TMP DP  RH WIND       PRES   REMARKS
ALPINE         CLOUDY    63  57  82 E8        30.15F
ANDREWS        CLOUDY    72  55  54 S9G16     30.07F
ARTESIA        NOT AVBL
BIG SPRING     CLOUDY    77  54  44 SE9       30.07F
CARLSBAD       MOSUNNY   69  59  70 S6G16     30.04F
DRYDEN           N/A     69  65  86 E10       30.02F
FORT STOCKTON  CLOUDY    68  61  78 SE12      30.05F
GUAD PASS      PTSUNNY   64  52  64 E15       30.13F
HOBBS          RAIN      66  57  72 SE20G26   30.10F
MARFA          CLOUDY    61  55  82 N5        30.13F
MIDLAND AIRPK  CLOUDY    74  54  50 SE10      30.07F
MIDLAND INTL   CLOUDY    73  56  54 S12       30.05
ODESSA         CLOUDY    71  56  58 S12       30.07F
PECOS          CLOUDY    70  60  71 E13       30.03F
PRESIDIO       CLOUDY    67  62  86 N5        30.02F
SEMINOLE       CLOUDY    68  57  67 S6        30.09F
SNYDER         MOSUNNY   75  54  46 S5        30.06F
WINK           CLOUDY    69  60  73 SE16G23   30.04F
$$
...OTHER STATIONS IN TEXAS...

CITY           SKY/WX    TMP DP  RH WIND       PRES   REMARKS
ABILENE        SUNNY     80  50  34 SE14G21   30.04F
AMARILLO       MOSUNNY   76  50  40 S17       30.07F
AUSTIN         MOSUNNY   80  52  37 E10       30.00F
BROWNSVILLE    CLOUDY    82  72  71 NE9       29.90F
CORPUS CHRISTI MOSUNNY   83  68  60 E15       29.95F
DALLAS FTW     MOSUNNY   80  54  40 SE8       30.03F
DEL RIO        CLOUDY    79  60  52 E7        29.97F
EL PASO        MOSUNNY   72  53  51 N3        30.03F
HOUSTON INT    MOSUNNY   81  55  40 E9G16     30.00F
LUBBOCK        MOSUNNY   74  50  42 SE10      30.07F
SAN ANGELO     PTSUNNY   79  53  40 SE8       30.03F
SAN ANTONIO    MOSUNNY   84  53  34 E12       29.99F
WACO           SUNNY     81  50  33 E9        30.03F
WICHITA FALLS  NOT AVBL
$$
...OTHER LOCATIONS IN NEW MEXICO...

CITY           SKY/WX    TMP DP  RH WIND       PRES   REMARKS
ALAMAGORDO     NOT AVBL
ALBUQUERQUE    PTSUNNY   64  44  48 VRB3      30.11F
CANNON AFB     MOSUNNY   73  48  42 S13G22    30.09F
CLOVIS         NOT AVBL
HOLLOMAN AFB   MOSUNNY   68  54  61 S5        30.06F
ROSWELL        CLOUDY    65  58  78 SW3       30.07F
RUIDOSO        CLOUDY    54  48  82 SE7       30.21F
SANTA FE       CLOUDY    61  45  55 W10       30.14F
TRUTH OR CONSE MOSUNNY   65  51  60 CALM      30.08F
TUCUMCARI      PTSUNNY   74  47  38 SW14      30.06F
$$

USA.gov is the U.S. government's official web portal to all federal, state and local government web resources and services.